Location: Góry Miechowskie
(50.3599°N, 20.1803°E)
Time: 07:22:10
(UTC+00:00)

A-11 Canister half - Pass Details

Date: 19 September 2024
Orbit: 1524 x 1683 km, 47.3° (Epoch: 12 October)

Event Time Altitude Azimuth Distance (km) Brightness Sun altitude
Rises 17:29:25 0° 288° (WNW) 4,801 14.0 -8.1°
Reaches altitude 10° 17:32:46 10° 281° (W) 3,836 12.8 -8.6°
Maximum altitude 17:41:25 37° 218° (SW) 2,354 10.2 -10.0°
Drops below altitude 10° 17:50:17 10° 156° (SSE) 3,921 10.8 -11.4°
Sets 17:53:46 0° 149° (SSE) 4,917 11.2 -11.9°
Enters shadow 17:53:51 - 148° (SSE) 4,942 11.2 -11.9°
